Location: *
(49.8044°N, 4.0558°E)
Time: 13:05:48
(UTC+00:00)

FALCON 9 DEB - Pass Details

Date: 09 April 2020
Orbit: 429 x 442 km, 53.0° (Epoch: 27 May)

Event Time Altitude Azimuth Distance (km) Brightness Sun altitude
Rises 19:26:26 0° 226° (SW) 2,423 7.2 -9.6°
Reaches altitude 10° 19:28:36 10° 219° (SW) 1,556 6.1 -10.0°
Maximum altitude 19:31:56 43° 147° (SSE) 637 3.6 -10.4°
Enters shadow 19:35:16 10° 75° (ENE) 1,558 5.5 -10.9°
